TimeEST,TemperatureF,Dew PointF,Humidity,Sea Level PressureIn,VisibilityMPH,Wind Direction,Wind SpeedMPH,Gust SpeedMPH,PrecipitationIn,Events,Conditions,WindDirDegrees,DateUTC
12:56 AM,25.0,19.0,78,30.42,10.0,Calm,Calm,-,N/A,,Clear,0,2012-12-13 05:56:00
1:56 AM,24.1,18.0,77,30.43,10.0,Calm,Calm,-,N/A,,Clear,0,2012-12-13 06:56:00
2:56 AM,21.9,18.0,85,30.42,10.0,East,5.8,-,N/A,,Clear,90,2012-12-13 07:56:00
3:56 AM,23.0,18.0,81,30.42,10.0,East,3.5,-,N/A,,Clear,80,2012-12-13 08:56:00
4:56 AM,19.9,16.0,85,30.43,10.0,ENE,3.5,-,N/A,,Clear,70,2012-12-13 09:56:00
5:56 AM,19.9,16.0,85,30.45,10.0,North,3.5,-,N/A,,Clear,10,2012-12-13 10:56:00
6:56 AM,21.0,17.1,85,30.46,10.0,East,3.5,-,N/A,,Clear,90,2012-12-13 11:56:00
7:56 AM,21.0,18.0,88,30.47,9.0,Calm,Calm,-,N/A,,Clear,0,2012-12-13 12:56:00
9:56 AM,28.9,21.9,75,30.45,10.0,East,3.5,-,N/A,,Clear,100,2012-12-13 14:56:00
10:56 AM,33.1,21.9,64,30.45,10.0,SE,5.8,-,N/A,,Clear,140,2012-12-13 15:56:00
11:56 AM,36.0,21.0,55,30.43,10.0,Variable,5.8,-,N/A,,Clear,0,2012-12-13 16:56:00
12:56 PM,37.9,19.9,48,30.38,10.0,Variable,4.6,-,N/A,,Clear,0,2012-12-13 17:56:00
1:56 PM,39.0,19.0,45,30.36,10.0,SSE,4.6,-,N/A,,Clear,160,2012-12-13 18:56:00
2:56 PM,39.0,19.0,45,30.36,10.0,Variable,4.6,-,N/A,,Clear,0,2012-12-13 19:56:00
3:56 PM,39.9,19.0,43,30.35,10.0,Variable,4.6,-,N/A,,Clear,0,2012-12-13 20:56:00
4:56 PM,37.9,16.0,41,30.35,10.0,Calm,Calm,-,N/A,,Clear,0,2012-12-13 21:56:00
7:56 PM,33.1,17.1,52,30.33,10.0,SSE,3.5,-,N/A,,Clear,150,2012-12-14 00:56:00
8:56 PM,32.0,18.0,56,30.32,10.0,Variable,3.5,-,N/A,,Clear,0,2012-12-14 01:56:00
9:56 PM,30.9,18.0,59,30.30,10.0,SSW,3.5,-,N/A,,Clear,200,2012-12-14 02:56:00
10:56 PM,30.0,18.0,61,30.30,10.0,Calm,Calm,-,N/A,,Clear,0,2012-12-14 03:56:00
11:56 PM,30.9,18.0,59,30.28,10.0,Calm,Calm,-,N/A,,Clear,0,2012-12-14 04:56:00